This is the latest recevied weather packets stored in our database for station/object K7KAZ. If no packets are shown the sender has not sent any weather packets the latest 10 day(s).
| Time | Temp. | Humidity | Pressure | Rain* | Wind** | Luminosity | Snow |
|---|---|---|---|---|---|---|---|
| 1777772326 | 31.11° C | 18% | 1012.3 hPa | 0 mm | - | 26 W/m² | - |
| 1777772023 | 31.11° C | 18% | 1012.5 hPa | 0 mm | - | 34 W/m² | - |
| 1777771720 | 31.11° C | 19% | 1012.5 hPa | 0 mm | - | 42 W/m² | - |
| 1777771418 | 31.11° C | 19% | 1012.5 hPa | 0 mm | - | 50 W/m² | - |
| 1777771115 | 31.11° C | 18% | 1012.6 hPa | 0 mm | - | 65 W/m² | - |
| 1777770811 | 31.11° C | 18% | 1012.6 hPa | 0 mm | - | 78 W/m² | - |
| 1777770508 | 31.67° C | 18% | 1012.4 hPa | 0 mm | - | 87 W/m² | - |
| 1777770205 | 31.67° C | 18% | 1012.5 hPa | 0 mm | - | 95 W/m² | - |
| 1777769901 | 31.11° C | 18% | 1012.5 hPa | 0 mm | - | 110 W/m² | - |
| 1777769599 | 31.11° C | 18% | 1012.6 hPa | 0 mm | - | 105 W/m² | - |
| 1777769295 | 31.67° C | 18% | 1012.4 hPa | 0 mm | - | 124 W/m² | - |
| 1777768993 | 31.11° C | 19% | 1012.4 hPa | 0 mm | - | 116 W/m² | - |
| 1777768691 | 31.11° C | 19% | 1012.5 hPa | 0 mm | - | 109 W/m² | - |
| 1777768387 | 31.11° C | 19% | 1012.5 hPa | 0 mm | - | 110 W/m² | - |
| 1777768084 | 31.67° C | 19% | 1012.6 hPa | 0 mm | - | 125 W/m² | - |
| 1777767781 | 31.67° C | 19% | 1012.6 hPa | 0 mm | - | 158 W/m² | - |
| 1777767477 | 31.67° C | 19% | 1012.6 hPa | 0 mm | - | 186 W/m² | - |
| 1777767174 | 31.67° C | 19% | 1012.7 hPa | 0 mm | - | 199 W/m² | - |
| 1777766871 | 31.11° C | 19% | 1012.6 hPa | 0 mm | - | 257 W/m² | - |
| 1777766568 | 31.67° C | 20% | 1012.7 hPa | 0 mm | - | 258 W/m² | - |
| 1777766266 | 31.67° C | 19% | 1012.5 hPa | 0 mm | - | 201 W/m² | - |
| 1777765963 | 31.67° C | 19% | 1012.5 hPa | 0 mm | - | 181 W/m² | - |
| 1777765659 | 31.11° C | 20% | 1012.6 hPa | 0 mm | - | 158 W/m² | - |
| 1777765357 | 31.11° C | 20% | 1012.8 hPa | 0 mm | - | 187 W/m² | - |
| 1777765053 | 31.67° C | 19% | 1012.8 hPa | 0 mm | - | 280 W/m² | - |
* Rain latest hour (hover to see other rain measurements)
** Current wind speed in m/s (hover to see current wind gust speed)